SVR773 LTFM-ULLI

Flight info

Callsign SVR773
Flight time 2h 58m
Altitude 34000
Route IBLAX P727 BGS L622 KOMAN DCT SOKRU DCT IPTOL DCT KARIL DCT KENIN/N0452F350 DCT ETUBO DCT VABER DCT LUNIT DCT NUMSU T633 RISAT/K0830F350 T633 KOLET KOLET1A
Aircraft A321/M-SDE3FGHIRWY/LB1

Departure

Time 2026-05-04 06:44
Airport İstanbul Airport (LTFM)

Arrival

Time 2026-05-04 09:42
Airport Pulkovo Airport (ULLI)
Time Latitude Longitude Altitude Speed Heading
2026-05-04 06:20 41.25866 28.73491 313 ft 0 kts 109°
2026-05-04 06:34 41.25873 28.73460 313 ft 4 kts 96°
2026-05-04 06:34 41.25872 28.73426 312 ft 4 kts 72°
2026-05-04 06:34 41.25861 28.73396 311 ft 4 kts 42°
2026-05-04 06:35 41.25839 28.73377 311 ft 4 kts 21°
2026-05-04 06:36 41.25828 28.73372 312 ft 0 kts 19°
2026-05-04 06:37 41.25838 28.73378 311 ft 6 kts 25°
2026-05-04 06:37 41.25918 28.73413 313 ft 18 kts 18°
2026-05-04 06:37 41.26070 28.73475 313 ft 27 kts 17°
2026-05-04 06:38 41.26216 28.73470 313 ft 18 kts 294°
2026-05-04 06:38 41.26218 28.73317 313 ft 16 kts 262°
2026-05-04 06:40 41.26592 28.72967 310 ft 0 kts 277°
2026-05-04 06:40 41.26592 28.72953 310 ft 7 kts 275°
2026-05-04 06:40 41.26593 28.72852 311 ft 11 kts 259°
2026-05-04 06:41 41.26591 28.72780 311 ft 7 kts 313°
2026-05-04 06:41 41.26645 28.72769 310 ft 11 kts 358°
2026-05-04 06:41 41.26925 28.72760 305 ft 82 kts 359°
2026-05-04 06:41 41.27754 28.72738 282 ft 153 kts 358°
2026-05-04 06:42 41.28960 28.72692 577 ft 187 kts 357°
2026-05-04 06:42 41.30410 28.72668 589 ft 233 kts 358°
2026-05-04 06:42 41.32130 28.72648 800 ft 259 kts 358°
2026-05-04 06:44 41.43213 28.69362 6545 ft 251 kts 337°
2026-05-04 06:44 41.44794 28.68348 7258 ft 254 kts 338°
2026-05-04 06:44 41.46397 28.67322 7962 ft 257 kts 338°
2026-05-04 06:45 41.48019 28.66287 8660 ft 260 kts 338°
2026-05-04 06:45 41.49660 28.65239 9357 ft 264 kts 339°
2026-05-04 06:45 41.51323 28.64175 10015 ft 267 kts 339°
2026-05-04 06:45 41.53049 28.63076 10309 ft 283 kts 339°
2026-05-04 06:46 41.54890 28.61908 10437 ft 303 kts 339°
2026-05-04 06:46 41.56820 28.60586 10566 ft 323 kts 332°
2026-05-04 06:46 41.58627 28.58637 10694 ft 346 kts 318°
2026-05-04 06:46 41.60289 28.56198 10828 ft 362 kts 316°
2026-05-04 06:48 41.74369 28.42062 14057 ft 369 kts 340°
2026-05-04 06:48 41.76747 28.40733 14417 ft 372 kts 340°
2026-05-04 06:49 41.79145 28.39386 14753 ft 375 kts 340°
2026-05-04 06:50 41.95586 28.27238 17073 ft 397 kts 330°
2026-05-04 06:51 41.97910 28.25205 17420 ft 400 kts 330°
2026-05-04 06:51 42.00248 28.23167 17773 ft 402 kts 330°
2026-05-04 06:51 42.02605 28.21122 18132 ft 405 kts 330°
2026-05-04 06:51 42.04979 28.19069 18467 ft 407 kts 330°
2026-05-04 06:52 42.07370 28.17001 18760 ft 410 kts 330°
2026-05-04 06:52 42.09779 28.14915 19064 ft 413 kts 330°
2026-05-04 06:52 42.12199 28.12814 19364 ft 415 kts 330°
2026-05-04 06:52 42.14637 28.10692 19667 ft 418 kts 330°
2026-05-04 06:53 42.17090 28.08556 19961 ft 421 kts 330°
2026-05-04 06:53 42.19556 28.06406 20263 ft 424 kts 330°
2026-05-04 06:53 42.22038 28.04240 20546 ft 426 kts 330°
2026-05-04 06:53 42.24533 28.02057 20819 ft 429 kts 330°
2026-05-04 06:54 42.27049 27.99855 21100 ft 432 kts 330°
2026-05-04 06:54 42.29578 27.97641 21369 ft 435 kts 330°
2026-05-04 06:54 42.32123 27.95414 21638 ft 437 kts 330°
2026-05-04 06:54 42.34687 27.93172 21910 ft 440 kts 330°
2026-05-04 06:55 42.37269 27.90913 22176 ft 443 kts 330°
2026-05-04 06:55 42.39855 27.88647 22452 ft 445 kts 330°
2026-05-04 06:55 42.42466 27.86352 22728 ft 448 kts 330°
2026-05-04 06:55 42.45087 27.84042 23008 ft 451 kts 330°
2026-05-04 06:56 42.47719 27.81717 23292 ft 453 kts 330°
2026-05-04 06:57 42.66448 27.65165 24938 ft 465 kts 330°
2026-05-04 06:58 42.69163 27.62748 25130 ft 467 kts 330°
2026-05-04 06:58 42.71885 27.60320 25316 ft 468 kts 330°
2026-05-04 06:58 42.74617 27.57884 25496 ft 470 kts 330°
2026-05-04 06:58 42.76433 27.56267 25603 ft 471 kts 330°
2026-05-04 06:59 42.79180 27.53820 25755 ft 473 kts 330°
2026-05-04 06:59 42.81937 27.51364 25971 ft 473 kts 330°
2026-05-04 06:59 42.84687 27.48911 26208 ft 472 kts 330°
2026-05-04 06:59 42.88342 27.45642 26491 ft 472 kts 330°
2026-05-04 07:01 43.06704 27.29123 27890 ft 475 kts 329°
2026-05-04 07:01 43.09467 27.26635 28117 ft 475 kts 329°
2026-05-04 07:02 43.12227 27.24141 28343 ft 476 kts 329°
2026-05-04 07:02 43.14994 27.21638 28569 ft 476 kts 329°
2026-05-04 07:02 43.17763 27.19131 28789 ft 476 kts 329°
2026-05-04 07:02 43.20495 27.16654 28995 ft 477 kts 329°
2026-05-04 07:03 43.23258 27.14148 29214 ft 477 kts 329°
2026-05-04 07:03 43.26029 27.11628 29389 ft 478 kts 329°
2026-05-04 07:03 43.28798 27.09105 29581 ft 479 kts 329°
2026-05-04 07:03 43.31579 27.06570 29787 ft 479 kts 329°
2026-05-04 07:04 43.34355 27.04039 29987 ft 480 kts 329°
2026-05-04 07:04 43.37139 27.01500 30165 ft 480 kts 329°
2026-05-04 07:04 43.39922 26.98962 30340 ft 480 kts 329°
2026-05-04 07:04 43.42742 26.96387 30521 ft 481 kts 329°
2026-05-04 07:05 43.45533 26.93835 30698 ft 481 kts 329°
2026-05-04 07:05 43.48279 26.91322 30872 ft 481 kts 329°
2026-05-04 07:05 43.51076 26.88759 31072 ft 481 kts 328°
2026-05-04 07:05 43.53856 26.86208 31270 ft 480 kts 328°
2026-05-04 07:06 43.59420 26.81088 31675 ft 479 kts 328°
2026-05-04 07:06 43.62194 26.78529 31890 ft 479 kts 328°
2026-05-04 07:06 43.64971 26.75967 32104 ft 478 kts 328°
2026-05-04 07:07 43.67736 26.73410 32308 ft 478 kts 328°
2026-05-04 07:08 43.86945 26.55579 33767 ft 473 kts 327°
2026-05-04 07:09 43.89683 26.53025 33981 ft 472 kts 327°
2026-05-04 07:09 43.92404 26.50485 34086 ft 472 kts 327°
2026-05-04 07:09 43.95132 26.47940 34101 ft 472 kts 327°
2026-05-04 07:10 44.00572 26.42857 34099 ft 471 kts 327°
2026-05-04 07:12 44.22257 26.22445 34099 ft 470 kts 327°
2026-05-04 07:12 44.27637 26.17349 34100 ft 470 kts 327°
2026-05-04 07:13 44.33038 26.12224 34102 ft 469 kts 327°
2026-05-04 07:13 44.38447 26.07090 34101 ft 469 kts 327°
2026-05-04 07:14 44.51929 25.94203 34122 ft 469 kts 328°
2026-05-04 07:15 44.57320 25.89040 34122 ft 468 kts 327°
2026-05-04 07:15 44.62664 25.83902 34119 ft 468 kts 327°
2026-05-04 07:16 44.68037 25.78729 34112 ft 467 kts 327°
2026-05-04 07:16 44.73404 25.73563 34107 ft 467 kts 327°
2026-05-04 07:17 44.78756 25.68394 34101 ft 466 kts 327°
2026-05-04 07:17 44.84101 25.63209 34101 ft 466 kts 327°
2026-05-04 07:18 44.89401 25.58051 34103 ft 465 kts 327°
2026-05-04 07:18 44.94720 25.52869 34109 ft 464 kts 327°
2026-05-04 07:19 45.00020 25.47693 34107 ft 463 kts 327°
2026-05-04 07:19 45.05306 25.42523 34110 ft 461 kts 327°
2026-05-04 07:20 45.10582 25.37351 34110 ft 460 kts 327°
2026-05-04 07:20 45.15829 25.32194 34112 ft 458 kts 327°
2026-05-04 07:22 45.36599 25.11678 34116 ft 452 kts 328°
2026-05-04 07:23 45.41751 25.06557 34114 ft 451 kts 328°
2026-05-04 07:23 45.46893 25.01430 34115 ft 450 kts 328°
2026-05-04 07:24 45.52010 24.96311 34124 ft 449 kts 329°
2026-05-04 07:24 45.57096 24.91223 34129 ft 448 kts 329°
2026-05-04 07:26 45.77456 24.70733 34142 ft 447 kts 329°
2026-05-04 07:27 45.82533 24.65595 34147 ft 446 kts 329°
2026-05-04 07:27 45.87599 24.60450 34151 ft 446 kts 329°
2026-05-04 07:28 45.92658 24.55315 34152 ft 445 kts 329°
2026-05-04 07:28 45.97724 24.50167 34151 ft 445 kts 329°
2026-05-04 07:29 46.02734 24.45049 34156 ft 445 kts 329°
2026-05-04 07:29 46.07774 24.39881 34156 ft 444 kts 328°
2026-05-04 07:30 46.12808 24.34714 34150 ft 444 kts 329°
2026-05-04 07:30 46.17842 24.29535 34154 ft 444 kts 328°
2026-05-04 07:31 46.22835 24.24384 34157 ft 443 kts 328°
2026-05-04 07:33 46.42882 24.03598 34150 ft 443 kts 328°
2026-05-04 07:33 46.47859 23.98407 34149 ft 443 kts 328°
2026-05-04 07:34 46.52866 23.93184 34150 ft 442 kts 328°
2026-05-04 07:34 46.57864 23.87955 34156 ft 442 kts 328°
2026-05-04 07:35 46.62858 23.82709 34159 ft 442 kts 328°
2026-05-04 07:35 46.67819 23.77483 34163 ft 442 kts 328°
2026-05-04 07:36 46.72804 23.72214 34164 ft 442 kts 327°
2026-05-04 07:38 46.92744 23.51064 34161 ft 442 kts 327°
2026-05-04 07:38 46.97715 23.45758 34158 ft 442 kts 327°
2026-05-04 07:39 47.02686 23.40434 34157 ft 442 kts 327°
2026-05-04 07:39 47.07649 23.35102 34155 ft 442 kts 327°
2026-05-04 07:40 47.12622 23.29769 34158 ft 442 kts 327°
2026-05-04 07:40 47.17581 23.24432 34161 ft 442 kts 327°
2026-05-04 07:41 47.22514 23.19106 34165 ft 442 kts 327°
2026-05-04 07:41 47.27470 23.13746 34169 ft 441 kts 327°
2026-05-04 07:42 47.32408 23.08371 34170 ft 441 kts 326°
2026-05-04 07:42 47.37351 23.02987 34172 ft 441 kts 327°
2026-05-04 07:43 47.41463 22.98511 34174 ft 441 kts 326°
2026-05-04 07:43 47.46388 22.93128 34178 ft 441 kts 326°
2026-05-04 07:44 47.51325 22.87726 34188 ft 440 kts 326°
2026-05-04 07:44 47.56249 22.82326 34195 ft 440 kts 326°
2026-05-04 07:45 47.61160 22.76919 34196 ft 440 kts 326°
2026-05-04 07:45 47.66076 22.71491 34198 ft 440 kts 326°
2026-05-04 07:46 47.70994 22.66056 34195 ft 440 kts 326°
2026-05-04 07:46 47.75862 22.60664 34190 ft 440 kts 326°
2026-05-04 07:47 47.80763 22.55212 34186 ft 439 kts 326°
2026-05-04 07:49 48.00344 22.33347 34170 ft 439 kts 325°
2026-05-04 07:49 48.05228 22.27832 34173 ft 439 kts 325°
2026-05-04 07:50 48.10092 22.22358 34168 ft 439 kts 325°
2026-05-04 07:50 48.14989 22.16842 34166 ft 440 kts 325°
2026-05-04 07:51 48.19866 22.11314 34168 ft 440 kts 324°
2026-05-04 07:51 48.24746 22.05756 34167 ft 440 kts 324°
2026-05-04 07:52 48.29627 22.00193 34165 ft 440 kts 324°
2026-05-04 07:52 48.34888 21.95641 34165 ft 436 kts 342°
2026-05-04 07:54 48.58744 21.97962 34159 ft 434 kts
2026-05-04 07:55 48.64716 21.99352 34159 ft 435 kts
2026-05-04 07:55 48.70706 22.00756 34160 ft 435 kts
2026-05-04 07:56 48.76689 22.02160 34162 ft 435 kts
2026-05-04 07:56 48.82655 22.03559 34158 ft 436 kts
2026-05-04 07:57 48.88657 22.04967 34161 ft 436 kts
2026-05-04 07:57 48.94658 22.06379 34158 ft 436 kts
2026-05-04 07:58 49.00657 22.07811 34156 ft 436 kts
2026-05-04 07:58 49.06644 22.09242 34158 ft 436 kts
2026-05-04 07:59 49.12631 22.10665 34157 ft 435 kts
2026-05-04 07:59 49.18613 22.12090 34151 ft 435 kts
2026-05-04 08:00 49.24594 22.13519 34150 ft 435 kts
2026-05-04 08:02 49.48488 22.19270 34128 ft 434 kts
2026-05-04 08:02 49.54458 22.20720 34123 ft 434 kts
2026-05-04 08:03 49.60428 22.22168 34120 ft 434 kts
2026-05-04 08:03 49.66396 22.23622 34116 ft 434 kts
2026-05-04 08:04 49.72365 22.25075 34117 ft 434 kts
2026-05-04 08:04 49.78335 22.26538 34109 ft 435 kts
2026-05-04 08:05 49.84319 22.27996 34106 ft 435 kts
2026-05-04 08:05 49.90302 22.29468 34105 ft 435 kts
2026-05-04 08:06 49.96289 22.30945 34109 ft 436 kts
2026-05-04 08:06 50.02281 22.32421 34109 ft 436 kts
2026-05-04 08:08 50.26245 22.38374 34087 ft 437 kts
2026-05-04 08:11 50.53314 22.45171 34084 ft 439 kts
2026-05-04 08:11 50.62361 22.47474 34086 ft 439 kts
2026-05-04 08:12 50.68401 22.49017 34081 ft 439 kts
2026-05-04 08:12 50.74432 22.50553 34084 ft 439 kts
2026-05-04 08:13 50.80475 22.52091 34079 ft 439 kts
2026-05-04 08:13 50.86521 22.53630 34082 ft 440 kts
2026-05-04 08:14 50.92561 22.55181 34077 ft 440 kts
2026-05-04 08:16 51.16708 22.61427 34091 ft 440 kts
2026-05-04 08:16 51.22755 22.62996 34094 ft 441 kts
2026-05-04 08:17 51.28833 22.64580 34093 ft 441 kts
2026-05-04 08:17 51.34881 22.66158 34093 ft 441 kts
2026-05-04 08:19 51.58344 22.72329 34047 ft 441 kts
2026-05-04 08:20 51.64412 22.73946 34044 ft 441 kts
2026-05-04 08:20 51.70444 22.75558 34041 ft 441 kts
2026-05-04 08:21 51.76509 22.77167 34038 ft 441 kts
2026-05-04 08:21 51.82582 22.78782 34038 ft 441 kts
2026-05-04 08:22 51.88623 22.80396 34032 ft 442 kts
2026-05-04 08:24 52.11722 22.86640 34013 ft 443 kts
2026-05-04 08:24 52.17749 22.88281 34008 ft 444 kts
2026-05-04 08:25 52.23725 22.89916 34005 ft 445 kts
2026-05-04 08:25 52.29717 22.91534 33994 ft 446 kts
2026-05-04 08:27 52.52939 22.97876 33971 ft 447 kts 13°
2026-05-04 08:28 52.58889 22.99723 33977 ft 448 kts
2026-05-04 08:28 52.65103 23.00919 33977 ft 449 kts
2026-05-04 08:29 52.71301 23.02248 33978 ft 450 kts
2026-05-04 08:31 52.95991 23.08535 33988 ft 453 kts
2026-05-04 08:33 53.17200 23.15490 33945 ft 449 kts
2026-05-04 08:35 53.41840 23.20207 33959 ft 455 kts
2026-05-04 08:35 53.48106 23.21938 33959 ft 456 kts
2026-05-04 08:37 53.69975 23.27558 33962 ft 457 kts
2026-05-04 08:38 53.76084 23.29169 33960 ft 457 kts
2026-05-04 08:38 53.82307 23.30827 33947 ft 456 kts
2026-05-04 08:40 54.07233 23.37433 33943 ft 460 kts
2026-05-04 08:41 54.13381 23.39070 33944 ft 460 kts
2026-05-04 08:41 54.19630 23.41233 33930 ft 463 kts 16°
2026-05-04 08:42 54.25563 23.45824 33934 ft 466 kts 24°
2026-05-04 08:42 54.31398 23.50745 33926 ft 467 kts 24°
2026-05-04 08:43 54.37231 23.55657 33925 ft 467 kts 24°
2026-05-04 08:43 54.43071 23.60590 33930 ft 468 kts 24°
2026-05-04 08:44 54.48915 23.65537 33919 ft 468 kts 24°
2026-05-04 08:46 54.72313 23.85559 33915 ft 470 kts 24°
2026-05-04 08:46 54.78173 23.90605 33911 ft 470 kts 24°
2026-05-04 08:47 54.84027 23.95669 33905 ft 471 kts 24°
2026-05-04 08:47 54.89883 24.00761 33906 ft 471 kts 24°
2026-05-04 08:48 54.95708 24.05833 33907 ft 471 kts 24°
2026-05-04 08:48 55.01583 24.10941 33910 ft 471 kts 24°
2026-05-04 08:49 55.07437 24.16068 33911 ft 471 kts 24°
2026-05-04 08:50 55.27967 24.34222 33904 ft 472 kts 24°
2026-05-04 08:51 55.33792 24.39396 33905 ft 472 kts 24°
2026-05-04 08:51 55.39659 24.44628 33898 ft 472 kts 24°
2026-05-04 08:52 55.45514 24.49880 33904 ft 472 kts 24°
2026-05-04 08:52 55.51374 24.55156 33894 ft 472 kts 24°
2026-05-04 08:54 55.74789 24.76377 33884 ft 473 kts 24°
2026-05-04 08:55 55.80648 24.81739 33876 ft 473 kts 24°
2026-05-04 08:55 55.86487 24.87082 33873 ft 474 kts 24°
2026-05-04 09:01 56.48123 25.43959 33850 ft 475 kts 24°
2026-05-04 09:01 56.54009 25.49426 33857 ft 475 kts 24°
2026-05-04 09:02 56.59911 25.54920 33858 ft 476 kts 24°
2026-05-04 09:02 56.64802 25.59486 33847 ft 476 kts 24°
2026-05-04 09:03 56.70691 25.65010 33855 ft 476 kts 24°
2026-05-04 09:03 56.76570 25.70556 33854 ft 476 kts 24°
2026-05-04 09:04 56.82462 25.76136 33850 ft 476 kts 24°
2026-05-04 09:04 56.88356 25.81715 33855 ft 476 kts 24°
2026-05-04 09:05 56.94252 25.87311 33852 ft 476 kts 24°
2026-05-04 09:05 57.00131 25.92919 33852 ft 477 kts 24°
2026-05-04 09:06 57.05981 25.98536 33849 ft 477 kts 24°
2026-05-04 09:08 57.29494 26.21261 33838 ft 477 kts 24°
2026-05-04 09:08 57.35361 26.27004 33839 ft 477 kts 24°
2026-05-04 09:09 57.41246 26.32772 33837 ft 477 kts 24°
2026-05-04 09:09 57.47114 26.38529 33833 ft 477 kts 24°
2026-05-04 09:10 57.52981 26.44307 33835 ft 477 kts 24°
2026-05-04 09:10 57.58842 26.50119 33834 ft 477 kts 24°
2026-05-04 09:11 57.64714 26.55947 33833 ft 478 kts 24°
2026-05-04 09:11 57.70578 26.61785 33830 ft 478 kts 24°
2026-05-04 09:12 57.76436 26.67660 33829 ft 478 kts 24°
2026-05-04 09:14 57.99879 26.91351 33814 ft 479 kts 24°
2026-05-04 09:14 58.05701 26.97297 33811 ft 479 kts 24°
2026-05-04 09:15 58.11563 27.03291 33810 ft 479 kts 24°
2026-05-04 09:15 58.17464 27.09340 33809 ft 479 kts 24°
2026-05-04 09:17 58.43537 27.37615 33801 ft 488 kts 38°
2026-05-04 09:18 58.48016 27.47449 33759 ft 493 kts 51°
2026-05-04 09:18 58.49915 27.52925 33011 ft 495 kts 56°
2026-05-04 09:18 58.51699 27.58577 32083 ft 497 kts 57°
2026-05-04 09:19 58.53476 27.64268 31190 ft 499 kts 57°
2026-05-04 09:19 58.55254 27.69999 30299 ft 502 kts 57°
2026-05-04 09:19 58.57033 27.75763 29346 ft 504 kts 58°
2026-05-04 09:19 58.58811 27.81551 28299 ft 505 kts 58°
2026-05-04 09:20 58.60619 27.87447 27268 ft 506 kts 58°
2026-05-04 09:20 58.62384 27.93191 26266 ft 507 kts 58°
2026-05-04 09:20 58.64179 27.99036 25243 ft 508 kts 58°
2026-05-04 09:20 58.65977 28.04887 24220 ft 509 kts 58°
2026-05-04 09:21 58.67776 28.10738 23175 ft 510 kts 58°
2026-05-04 09:21 58.69564 28.16570 22338 ft 503 kts 58°
2026-05-04 09:21 58.71323 28.22358 21534 ft 497 kts 58°
2026-05-04 09:21 58.73052 28.28083 20751 ft 492 kts 58°
2026-05-04 09:22 58.74767 28.33770 19960 ft 487 kts 58°
2026-05-04 09:22 58.76459 28.39383 19176 ft 483 kts 58°
2026-05-04 09:22 58.78139 28.44973 18415 ft 479 kts 58°
2026-05-04 09:22 58.79799 28.50499 17613 ft 474 kts 58°
2026-05-04 09:23 58.81441 28.55972 16826 ft 469 kts 58°
2026-05-04 09:23 58.83066 28.61397 16050 ft 464 kts 58°
2026-05-04 09:23 58.84671 28.66772 15276 ft 459 kts 58°
2026-05-04 09:23 58.86259 28.72100 14908 ft 457 kts 59°
2026-05-04 09:25 58.97358 29.09467 14774 ft 457 kts 53°
2026-05-04 09:25 58.99393 29.14169 14773 ft 454 kts 42°
2026-05-04 09:26 59.01814 29.18049 14773 ft 449 kts 31°
2026-05-04 09:26 59.04519 29.20992 14771 ft 444 kts 20°
2026-05-04 09:26 59.07423 29.22981 14776 ft 440 kts 12°
2026-05-04 09:26 59.10353 29.24660 14651 ft 435 kts 12°
2026-05-04 09:27 59.13153 29.26290 14048 ft 406 kts 12°
2026-05-04 09:27 59.15753 29.27828 13746 ft 375 kts 12°
2026-05-04 09:27 59.18148 29.29248 13582 ft 345 kts 11°
2026-05-04 09:27 59.20376 29.30562 13136 ft 327 kts 11°
2026-05-04 09:28 59.22534 29.31814 12416 ft 320 kts 10°
2026-05-04 09:28 59.24633 29.33015 11691 ft 316 kts 10°
2026-05-04 09:28 59.26762 29.34234 10945 ft 312 kts 11°
2026-05-04 09:28 59.28832 29.35425 10244 ft 309 kts 11°
2026-05-04 09:29 59.30885 29.36616 9796 ft 309 kts 11°
2026-05-04 09:29 59.32947 29.37816 9332 ft 310 kts 11°
2026-05-04 09:29 59.35009 29.39016 8858 ft 310 kts 11°
2026-05-04 09:29 59.37075 29.40222 8391 ft 310 kts 12°
2026-05-04 09:30 59.39140 29.41439 7928 ft 309 kts 12°
2026-05-04 09:30 59.41192 29.42649 7466 ft 308 kts 12°
2026-05-04 09:30 59.43239 29.43857 7027 ft 307 kts 12°
2026-05-04 09:30 59.45283 29.45070 6585 ft 306 kts 13°
2026-05-04 09:31 59.47284 29.46277 6370 ft 294 kts 13°
2026-05-04 09:31 59.49226 29.47428 5968 ft 290 kts 12°
2026-05-04 09:31 59.51131 29.48545 5596 ft 287 kts 12°
2026-05-04 09:31 59.53041 29.49664 5211 ft 285 kts 13°
2026-05-04 09:32 59.54931 29.50774 4841 ft 283 kts 13°
2026-05-04 09:32 59.56806 29.51877 4750 ft 280 kts 13°
2026-05-04 09:34 59.69190 29.55691 3424 ft 227 kts 323°
2026-05-04 09:34 59.70627 29.54366 2858 ft 235 kts 351°
2026-05-04 09:34 59.72219 29.54962 2765 ft 241 kts 25°
2026-05-04 09:34 59.73510 29.57067 2741 ft 244 kts 54°
2026-05-04 09:35 59.74382 29.59889 2888 ft 245 kts 59°
2026-05-04 09:35 59.75278 29.62833 2991 ft 249 kts 59°
2026-05-04 09:35 59.76178 29.65753 2993 ft 247 kts 59°
2026-05-04 09:35 59.77070 29.68648 3025 ft 246 kts 59°
2026-05-04 09:37 59.80888 29.82223 2250 ft 242 kts 59°
2026-05-04 09:37 59.81760 29.85087 2451 ft 242 kts 60°
2026-05-04 09:38 59.82603 29.87931 2492 ft 232 kts 61°
2026-05-04 09:38 59.83388 29.90661 2515 ft 224 kts 63°
2026-05-04 09:38 59.83844 29.93552 2524 ft 219 kts 86°
2026-05-04 09:38 59.83691 29.96622 2515 ft 227 kts 107°
2026-05-04 09:39 59.83249 29.99647 2352 ft 228 kts 109°
2026-05-04 09:39 59.82808 30.02641 2082 ft 222 kts 108°
2026-05-04 09:39 59.82385 30.05535 1768 ft 213 kts 109°
2026-05-04 09:39 59.81983 30.08280 1489 ft 200 kts 109°
2026-05-04 09:40 59.81608 30.10844 1257 ft 189 kts 108°
2026-05-04 09:40 59.81246 30.13306 994 ft 184 kts 109°
2026-05-04 09:40 59.80887 30.15745 737 ft 179 kts 108°
2026-05-04 09:40 59.80556 30.17994 510 ft 163 kts 108°
2026-05-04 09:41 59.80242 30.20126 295 ft 159 kts 107°
2026-05-04 09:42 59.79530 30.25817 87 ft 0 kts 76°
2026-05-04 09:43 59.79530 30.25818 87 ft 1 kts 76°
2026-05-04 09:44 59.79533 30.25842 84 ft 5 kts 76°
2026-05-04 09:44 59.79552 30.25984 87 ft 16 kts 94°
2026-05-04 09:44 59.79529 30.26220 87 ft 8 kts 65°
2026-05-04 09:46 59.79812 30.26293 82 ft 0 kts 289°